Content
SEND FEEDBACK

Daily
Averages
Monthly
Summary
France

AVIGNON, FRANCE


Home > Europe > France
Elevation: 187 feet     Latitude: 44 00N     Longitude: 004 45E

WEATHER
 
SELECT A DAY
Number of Records: 175,273;   Date Range: 5/17/04 - 12/27/14
 
SHARE

PRINT THIS DATA

[ ← Previous Day ]
WEATHER ALMANAC - JUNE 14, 2013
[ Next Day → ]
[ °C ]   °F
Weather ElementAverageHighLow
Temperature69.9 °F82.4 °F (5:00 pm)60.8 °F (6:00 am)
Dewpoint56.2 °F60.8 °F (1:00 pm)51.8 °F (12:30 am)
Humidity62.8 %83 % (11:30 pm)42 % (5:00 pm)
Barometer30.03 in30.06 in (12:30 am)29.98 in (5:00 pm)
Wind Speed9.7 mph18.4 mph (4:30 am)
Weather ElementAverage
Visibility6.2 mi
Wind DirectionW (265.3 °)

Weather ElementTotal
Precipitation---
Cooling Degree Days6.6 (Base 65)
Growing Degree Days21.6 (Base 50)
Averaged from 43 records on June 14, 2013
WEATHER CONDITIONS BREAKOUT
WIND DIRECTION BREAKOUT
WEATHER BY HOUR - JUNE 14, 2013
[ °C ]   °F
Local TimeTemperatureDewpointHumidityBarometerVisibilityWind DirectionWind SpeedGust SpeedPrecipitationEventsConditions
12:30 AM68.0 °F51.8 °F56 %30.06 in6.2 miNorth (360°)15.0 mph
1:00 AM66.2 °F51.8 °F60 %30.06 in6.2 miNorth (360°)10.4 mph
1:30 AM66.2 °F53.6 °F64 %30.04 in6.2 miNorth (360°)9.2 mph
2:00 AM66.2 °F53.6 °F64 %30.04 in6.2 miNorth (350°)11.5 mphOvercast
2:30 AM66.2 °F53.6 °F64 %30.04 in6.2 miNorth (350°)16.1 mph
3:00 AM64.4 °F53.6 °F68 %30.06 in6.2 miNorth (360°)13.8 mph
3:30 AM64.4 °F53.6 °F68 %30.04 in6.2 miNorth (360°)15.0 mph
4:00 AM64.4 °F53.6 °F68 %30.04 in6.2 miNorth (360°)15.0 mph
4:30 AM62.6 °F53.6 °F72 %30.04 in6.2 miNorth (360°)18.4 mph
5:00 AM62.6 °F53.6 °F72 %30.04 in6.2 miNorth (350°)15.0 mph
5:30 AM62.6 °F53.6 °F72 %30.04 in6.2 miNorth (360°)15.0 mph
6:00 AM60.8 °F55.4 °F82 %30.04 in6.2 miNNW (340°)13.8 mph
6:30 AM60.8 °F55.4 °F82 %30.04 in6.2 miNorth (360°)15.0 mph
7:00 AM62.6 °F53.6 °F72 %30.04 in6.2 miNorth (360°)9.2 mph
7:30 AM62.6 °F53.6 °F72 %30.04 in6.2 miNorth (350°)12.7 mph
8:00 AM62.6 °F53.6 °F72 %30.04 in6.2 miNorth (360°)13.8 mph
8:30 AM62.6 °F53.6 °F72 %30.04 in6.2 miNorth (10°)11.5 mph
9:00 AM66.2 °F55.4 °F68 %30.04 in6.2 miNorth (360°)11.5 mph
9:30 AM66.2 °F55.4 °F68 %30.04 in6.2 miNorth (360°)10.4 mph
10:00 AM68.0 °F57.2 °F68 %30.04 in6.2 miNorth (360°)9.2 mph
10:30 AM69.8 °F57.2 °F64 %30.04 in6.2 miNorth (360°)10.4 mph
11:00 AM71.6 °F57.2 °F60 %30.04 in6.2 miNNW (340°)9.2 mph
11:30 AM71.6 °F57.2 °F60 %30.04 in6.2 miNNW (330°)9.2 mph
12:00 PM73.4 °F59.0 °F61 %30.04 in6.2 miNW (320°)9.2 mph
12:30 PM71.6 °F59.0 °F64 %30.04 in6.2 miNNW (330°)6.9 mph
1:00 PM75.2 °F60.8 °F61 %30.04 in6.2 miNNW (340°)4.6 mph
1:30 PM77.0 °F60.8 °F57 %30.01 in6.2 miVariable4.6 mph
2:00 PM77.0 °F57.2 °F50 %30.01 in6.2 miVariable3.5 mph
2:30 PM78.8 °F59.0 °F51 %30.01 in6.2 miVariable3.5 mph
5:00 PM82.4 °F57.2 °F42 %29.98 in6.2 miWSW (250°)6.9 mph
5:30 PM82.4 °F57.2 °F42 %29.98 in6.2 miSW (230°)8.1 mph
6:00 PM82.4 °F59.0 °F45 %29.98 in6.2 miWSW (250°)9.2 mph
6:30 PM82.4 °F60.8 °F48 %29.98 in6.2 miSW (230°)10.4 mph
7:00 PM80.6 °F59.0 °F48 %29.98 in6.2 miSW (230°)11.5 mph
7:30 PM78.8 °F59.0 °F51 %29.98 in6.2 miSSW (210°)9.2 mph
8:00 PM77.0 °F57.2 °F50 %29.98 in6.2 miSSW (210°)8.1 mph
8:30 PM75.2 °F57.2 °F53 %29.98 in6.2 miSW (230°)8.1 mph
9:00 PM73.4 °F57.2 °F57 %30.01 in6.2 miSW (220°)8.1 mph
9:30 PM71.6 °F57.2 °F60 %30.01 in6.2 miSSW (210°)5.8 mph
10:00 PM68.0 °F57.2 °F68 %30.01 in6.2 miSSW (210°)3.5 mph
10:30 PM68.0 °F57.2 °F68 %30.01 in6.2 miVariable2.3 mph
11:00 PM66.2 °F57.2 °F73 %30.04 in6.2 miVariable1.2 mph
11:30 PM64.4 °F59.0 °F83 %30.04 in6.2 miESE (120°)1.2 mph
Hourly data recorded from LFMV, located miles away from Avignon, France







STORIES FROM OUR PARTNERS